www.pogodaiklimat.ru

Погода и климат >> Архив погоды >> Гана >> Ва


ПОГОДА в Ва

  • Прогноз погоды в Ва
  • Монитор погоды в Ва

АРХИВ ПОГОДЫ в Ва

Время (UTC), дата Ветер
(напр.,м/с)
 
Видим.   Явления Облачность Т
(С)
Тd
(С)
f
(%)
Тe
(С)
Тes
(С)
Комфортность P
(гПа)
Po
(гПа)
Тmin
(С)
Tmax
(С)
R
(мм)
R24
(мм)
S
(см)
09 9.01 СВ 4 2000 м мгла 3/0
[Ci sp]
+25.0 +1.8 22 +24 +28 комфорт 1013.7 1014.0
15 9.01 СВ 2 5000 м мгла 6/0
[Cs]
+35.0 +7.4 18 +33 +41 жарко 1008.1 1008.0
18 9.01 В 2 5000 м мгла 8/0
[Cs]
+33.0 +9.2 23 +32 +32 жарко 1008.1 1008.0 +35.0
09 10.01 СВ 1 5000 м мгла 5/0
[Ci sp]
+26.0 +6.5 29 +26 +33 жарко 1014.6 1015.0
12 10.01 ЮВ 2 6000 м мгла ясно +33.0 +6.4 19 +31 +48 жарко 1011.3 1011.0
15 10.01 СЗ 1 8000 м мгла ясно +35.6 +9.5 20 +34 +44 очень
жарко
1008.6 1009.0
18 10.01 штиль 0 8000 м мгла ясно +33.0 +13.1 30 +34 +34 очень
жарко
1008.9 1009.0 +35.6
21 10.01 штиль 0 6000 м мгла 5/0
[Ci sp]
+26.5 +11.3 39 +28 +28 жарко 1012.0 1012.0
00 11.01 штиль 0 6000 м мгла 4/0
[Ci sp]
+24.5 +8.9 37 +25 +25 комфорт 1012.0 1012.0
09 11.01 СВ 3 6000 м мгла ясно +27.2 +5.3 25 +26 +33 жарко 1013.7 1014.0
12 11.01 СВ 3 6000 м мгла ясно +34.0 +6.7 18 +32 +45 жарко 1010.7 1011.0
15 11.01 СВ 2 8000 м мгла ясно +36.0 +7.8 18 +34 +43 очень
жарко
1008.5 1009.0
18 11.01 штиль 0 8000 м мгла ясно +33.0 +13.9 32 +34 +34 очень
жарко
1008.9 1009.0 +36.0
21 11.01 штиль 0 8000 м мгла ясно +28.5 +10.4 32 +29 +29 жарко 1011.9 1012.0
03 12.01 СВ 2 8000 м мгла ясно +26.0 +7.8 31 +26 +26 жарко 1010.2 1010.0
06 12.01 СВ 3 8000 м мгла 3/0
[Ci sp]
+25.0 +6.2 30 +25 +25 комфорт 1011.2 1011.0 +24.5
09 12.01 СВ 4 8000 м мгла 6/0
[Ac trans Ci sp]
+27.5 +1.8 19 +26 +29 жарко 1012.9 1013.0
12 12.01 СВ 5 8000 м мгла 8/0
[Ac trans Ci sp]
+35.5 +3.7 14 +33 +37 жарко 1010.1 1010.0
15 12.01 В 4 8000 м мгла 6/0
[Ac trans Ci sp]
+37.5 +6.1 15 +35 +39 очень
жарко
1008.1 1008.0
21 12.01 СВ 2 8000 м мгла ясно +29.5 +8.4 27 +29 +29 жарко 1011.8 1012.0
00 13.01 штиль 0 8000 м мгла ясно +24.5 +8.9 37 +25 +25 комфорт 1012.0 1012.0
06 13.01 СВ 2 8000 м мгла ясно +25.0 +1.8 22 +24 +24 комфорт 1012.2 1012.0 +24.0
09 13.01 СВ 3 8000 м мгла 3/0
[Ci sp]
+29.5 +0.8 16 +27 +32 жарко 1014.0 1014.0
12 13.01 СВ 3 8000 м мгла ясно +36.5 +4.2 13 +33 +47 жарко 1013.1 1013.0
18 13.01 СВ 2 8000 м мгла ясно +35.0 +4.1 15 +32 +32 жарко 1009.5 1010.0 +38.5
15 14.01 СВ 1 8000 м мгла 4/0
[Ci sp]
+37.5 +7.9 16 +35 +44 очень
жарко
1009.6 1010.0
03 15.01 СВ 3 8000 м мгла ясно +24.5 +3.1 25 +24 +24 комфорт 1013.5 1014.0
06 15.01 СВ 2 8000 м мгла ясно +22.0 +6.7 37 +23 +23 комфорт 1012.8 1013.0 +21.5
09 15.01 СВ 3 4000 м мгла ясно +28.0 +2.8 20 +26 +32 жарко 1014.2 1014.0
12 15.01 СВ 3 5000 м мгла ясно +34.5 +4.8 16 +32 +45 жарко 1012.1 1012.0
15 15.01 СВ 2 7000 м мгла ясно +37.5 +7.9 16 +35 +44 очень
жарко
1009.1 1009.0
21 15.01 штиль 0 7000 м мгла ясно +29.0 +8.8 28 +29 +29 жарко 1012.5 1013.0
03 16.01 СВ 1 8000 м мгла ясно +23.0 +6.9 35 +24 +24 комфорт 1011.9 1012.0

 

Местоположение метеостанции Ва (Гана): широта 10.05 долгота -2.50 высота над уровнем моря 323 м.

В архиве по умолчанию представлена погода в Ва за последнюю неделю. Архивные данные за месяц целиком и за предыдущие месяцы, начиная с января 2011 года, Вы можете получить, выбрав интересующий диапазон дат из раскрывающегося списка и нажав кнопку "Ввод!".


*Определитесь, кто Вы:
робот инопланетянин человек

Внимание! Время в таблицах - всемирное. Для получения местного времени необходимо прибавить поправку, которая равна 1 ч.

Смотрите также архив погоды в соседних городах и на ближайших метеорологических станциях:

Погода в Гауа (Буркина-Фасо) (81 км)
Погода в Боле (Гана) (113 км)
Погода в Навронго (Гана) (180 км)
Погода в Тамале (Гана) (191 км)
Погода в По (Буркина-Фасо) (192 км)
Погода в Боромо (Буркина-Фасо) (195 км)
Погода в Бондуку (Кот-д'Ивуар) (225 км)
Погода в Бобо-Диуласо (Буркина-Фасо) (235 км)
Погода в Уэнчи (Гана) (260 км)
Погода в Уагадугу (Буркина-Фасо) (277 км)

Пояснения к столбцам:

Ветер - указаны скорость ветра в м/с - средняя за 10 мин, порывы в срок и между сроками (в фигурных скобках) и направление, откуда дует ветер: С - северный, СВ - северо-восточный, В - восточный, ЮВ - юго-восточный, Ю - южный, ЮЗ - юго-западный, З - западный, СЗ - северо-западный.
Видимость - горизонтальная дальность видимости в метрах или километрах. При видимости от 1 до 10 км при отсутствии осадков обычно наблюдается дымка, при ухудшении видимости до 1 км и менее - туман. В сухую погоду видимость может ухудшаться дымом, пылью или мглою.
Явления - указаны атмосферные явления, наблюдавшиеся в срок или в последний час перед сроком; фигурными скобками обозначены явления, наблюдавшиеся между сроками (за 1-3 часа до срока); квадратными скобками обозначены град или гололедные отложения с указанием их диаметра в мм.
Облачность - указаны через наклонную черту общая и нижняя облачность в баллах и высота нижней границы облаков в метрах; квадратными скобками обозначены формы облаков: Ci - перистые, Cs - перисто-слоистые, Cc - перисто-кучевые, Ac - высококучевые, As - высокослоистые, Sc - слоисто-кучевые, Ns - слоисто-дождевые, Cu - кучевые, Cb - кучево-дождевые. Подробнее классификацию облаков см. в Атласе облаков (PDF).
T - Температура воздуха - температура, измеренная на высоте 2 м над землей.
Td - Температура точки росы - температура, при понижении до которой содержащийся в воздухе водяной пар достигнет насыщения.
f - Относительная влажность воздуха - влажноcть воздуха, измеренная на высоте 2 м над землей.
Te - Эффективная температура - температура, которую ощущает одетый по сезону человек в тени. Характеристика душности погоды. При расчете учитывается влияние влажности воздуха и скорости ветра на теплоощущения человека.
Tes - Эффективная температура на солнце - температура, которую ощущает человек, с поправкой на солнечный нагрев. Характеристика знойности погоды. Зависит от высоты солнца над горизонтом, облачности и скорости ветра. Ночью, в пасмурную погоду, а также при ветре 12 м/с и более поправка равна нулю.
P - Атмосферное давление - приведенное к уровню моря атмосферное давление.
Po - Атмосферное давление - измеренное на уровне метеостанции атмосферное давление.
Tmin - Минимальная температура - минимум температуры воздуха на высоте 2 м над землей.
Tmax - Максимальная температура - максимум температуры воздуха на высоте 2 м над землей.
R - Количество осадков - Количество выпавших осадков за период времени, мм. При наведении курсора мыши на число - период времени, за который выпало указанное количество осадков.
R24 - Количество осадков - Количество выпавших осадков за 24 часа, мм.
S - Снежный покров - Высота снежного покрова, см. При наведении курсора мыши на число - состояние снежного покрова и степень покрытия местности в баллах.